Terug naar catalogus

QIANFAN-207

ActiefCommunicatiePO
NORAD 69806·PAYLOAD·🇨🇳 China

Gelanceerd Jul 4, 2026 vanaf Taiyuan Satellite Launch Center

Loading…

Volgende Passages (komende 24 uur)

TLE

VersSource: Space-Track

Epoch: Sep 14, 2026, 14:22 UTC

1 69806U 26153G   26257.59921898  .00000056  00000-0  25389-4 0  9991
2 69806  88.9978 352.1143 0007368   1.6957 358.4249 14.06671569 10226

Volg QIANFAN-207 in realtime met AllMySat

Download on the App Store